Regional Weather Roundup
Issued by NWS

Home | Current Version | Previous Version | Text Only | Print | Product List | Glossary On
Versions: 1 2 3 4 5 6 7 8 9 10 11 12 13 14 15 16 17 18 19 20 21 22 23 24 25 26 27 28 29 30 31 32 33 34 35 36 37 38 39 40 41 42 43 44 45 46 47 48 49 50
000
ASUS43 KDTX 172210
RWRMI
MICHIGAN HOURLY REGIONAL WEATHER ROUNDUP
NATIONAL WEATHER SERVICE DETROIT/PONTIAC MI
500 PM EST WED DEC 17 2014

NOTE: "FAIR" INDICATES FEW OR NO CLOUDS BELOW 12,000 FEET WITH NO
SIGNIFICANT WEATHER AND/OR OBSTRUCTION TO VISIBILITY.

MIZ047>049-052>055-059>063-066>070-074>076-081>083-172300-
SOUTHEAST LOWER MICHIGAN

CITY           SKY/WX    TMP DP  RH WIND       PRES   REMARKS
ADRIAN         CLOUDY    29  21  72 NW13      30.12R
ALMA           CLOUDY    28  21  77 W13G23    30.09R
ANN ARBOR      CLOUDY    30  21  69 W20G26    30.08S
BAD AXE        SNOW      29  27  91 W15G25    30.01R VSB 1/2
DETROIT CITY   CLOUDY    33  20  58 W14G23    30.07S
DETROIT        CLOUDY    31  22  69 W10G21    30.09R
FLINT          CLOUDY    30  19  63 W22       30.07S
GROSSE ILE     CLOUDY    30  23  74 W8        30.08R
HILLSDALE      CLOUDY    28  22  79 W18G24    30.10R
HOWELL         FLURRIES  28  22  77 W12       30.07R

CITY           SKY/WX    TMP DP  RH WIND       PRES   REMARKS
JACKSON        CLOUDY    28  20  71 W14G20    30.10R
LAMBERTVILLE   CLOUDY    32  23  69 W13G18    30.13R
LANSING        CLOUDY    27  20  75 NW14      30.11R
LAPEER         NOT AVBL
MASON          CLOUDY    28  20  74 W16G24    30.09R
MONROE         CLOUDY    30  23  74 W14       30.09R
MT. CLEMENS    CLOUDY    30  22  73 W12       30.04R
PONTIAC        FLURRIES  28  19  69 W17       30.05R
PORT HOPE        N/A     30  26  85 W12G22    29.97R
PORT HURON     CLOUDY    30  23  74 W13       30.05R
TRI CITIES     CLOUDY    30  21  69 W20G26    30.07R
YPSILANTI      CLOUDY    33  21  61 W17       30.08S
$$
MIZ043>046-050>051-056>058-064>065-071>073-077>080-172300-
SOUTHWEST LOWER MICHIGAN

CITY           SKY/WX    TMP DP  RH WIND       PRES   REMARKS
BATTLE CREEK   CLOUDY    29  19  66 NW16G25   30.13R
BENTON HARBOR  CLOUDY    28  19  69 W9        30.19R
BIG RAPIDS     LGT SNOW  26  23  87 W9        30.07S
COLDWATER      CLOUDY    28  22  77 W12G18    30.13R
HOLLAND        CLOUDY    30  19  63 W10G21    30.16R
GRAND RAPIDS   FLURRIES  27  18  69 W16G26    30.13R
KALAMAZOO      FLURRIES  28  20  71 NW14      30.15R
MARSHALL       FLURRIES  27  20  75 W8        30.12R
MUSKEGON       FLURRIES  29  18  63 W13G25    30.16R
$$
MIZ016>042-172300-
NORTHERN LOWER MICHIGAN

CITY           SKY/WX    TMP DP  RH WIND       PRES   REMARKS
ALPENA         LGT SNOW  27  24  89 NW8       29.98R FOG
BEAVER ISLAND  CLOUDY    27  24  86 NW7G16    30.04R
BELLAIRE       LGT SNOW  29  26  89 NW5       30.04R
CADILLAC       LGT SNOW  25  22  89 W10       30.02R VSB 1
CHARLEVOIX     LGT SNOW  28  26  91 NW16G22   30.06R
FRANKFORT      LGT SNOW  28  26  89 NW20      30.10R
GAYLORD        LGT SNOW  25  23  93 NW9G17    29.96R VSB 3/4
GRAYLING       LGT SNOW  28  27  96 W8        29.99R VSB 3/4
HARBOR SPRINGS LGT SNOW  27  23  84 W7        30.02R
HOUGHTON LAKE  LGT SNOW  27  21  80 W15       30.00R VSB 3/4
MANISTEE       CLOUDY    28  21  74 NW15      30.11R
OSCODA         LGT SNOW  30  29  96 W7        29.98R VSB 1
PELLSTON       LGT SNOW  26  23  88 NW10      30.02R VSB 3/4
TRAVERSE CITY  LGT SNOW  29  25  85 W14       30.05R FOG
$$
MIZ007>008-015-172300-
EASTERN UPPER MICHIGAN

CITY           SKY/WX    TMP DP  RH WIND       PRES   REMARKS
KINROSS        CLOUDY    23  21  93 N10G16    30.00R
MACKINAC ISLAN CLOUDY    26  25  96 N10G16    30.00R FOG
NEWBERRY       LGT SNOW  24  22  96 N7        30.03R
S. S. MARIE    FLURRIES  23  18  81 NW10      30.02S
$$
MIZ004>006-011>014-085-172300-
CENTRAL UPPER MICHIGAN

CITY           SKY/WX    TMP DP  RH WIND       PRES   REMARKS
MANISTIQUE     CLOUDY    26  24  90 N12G18    30.06R
ESCANABA       CLOUDY    28  19  69 NW15      30.10R
MENOMINEE      CLOUDY    28  19  69 N10       30.14R
SAWYER-GWINN   CLOUDY    25  23  93 N15G22    30.09R
$$
MIZ001>003-009>011-084-172300-
WESTERN UPPER MICHIGAN

CITY           SKY/WX    TMP DP  RH WIND       PRES   REMARKS
IRON MOUNTAIN  CLOUDY    25  18  74 NW12      30.12R
HOUGHTON       MIX PCPN  23  19  85 N12       30.18R
COPPER HARBOR    N/A     27  21  78 NE20      30.20R
IRONWOOD       CLOUDY    21  19  93 N8        30.20R
$$

ABBREVIATIONS USED IN REMARKS
   TC - TEMPERATURE IN CELSIUS
  WCI - WIND CHILL INDEX
   HX - HEAT INDEX
  VSB - VISIBILITY



USA.gov is the U.S. government's official web portal to all federal, state and local government web resources and services.